TimeCST,TemperatureF,Dew PointF,Humidity,Sea Level PressureIn,VisibilityMPH,Wind Direction,Wind SpeedMPH,Gust SpeedMPH,PrecipitationIn,Events,Conditions,WindDirDegrees,DateUTC
12:52 AM,54.0,52.0,93,29.85,6.0,Calm,Calm,-,0.00,Rain,Light Rain,0,2012-12-08 06:52:00
12:59 AM,53.6,51.8,94,29.85,7.0,NNW,5.8,-,0.00,,Overcast,330,2012-12-08 06:59:00
1:52 AM,52.0,51.1,97,29.85,4.0,SSE,3.5,-,0.01,,Overcast,160,2012-12-08 07:52:00
2:15 AM,53.6,51.8,94,29.86,5.0,NW,4.6,-,N/A,,Overcast,310,2012-12-08 08:15:00
2:34 AM,51.8,51.8,100,29.86,5.0,NW,6.9,-,N/A,,Overcast,320,2012-12-08 08:34:00
2:42 AM,51.8,50.0,94,29.86,6.0,NNW,8.1,-,N/A,,Overcast,330,2012-12-08 08:42:00
2:52 AM,52.0,48.9,89,29.86,5.0,NNW,6.9,-,N/A,,Overcast,340,2012-12-08 08:52:00
3:07 AM,51.8,48.2,88,29.86,5.0,NW,6.9,-,N/A,,Overcast,320,2012-12-08 09:07:00
3:50 AM,51.8,48.2,88,29.87,5.0,NNW,8.1,-,N/A,,Overcast,330,2012-12-08 09:50:00
3:52 AM,52.0,48.9,89,29.86,5.0,NNW,8.1,-,N/A,,Overcast,330,2012-12-08 09:52:00
4:52 AM,51.1,48.9,92,29.89,4.0,NW,6.9,-,N/A,,Overcast,320,2012-12-08 10:52:00
5:52 AM,50.0,48.9,96,29.91,4.0,NW,5.8,-,0.00,,Overcast,310,2012-12-08 11:52:00
6:04 AM,50.0,48.2,94,29.90,4.0,NNW,6.9,-,N/A,,Overcast,330,2012-12-08 12:04:00
6:52 AM,50.0,48.0,93,29.93,5.0,WNW,3.5,-,N/A,,Overcast,300,2012-12-08 12:52:00
7:07 AM,50.0,48.2,94,29.93,4.0,NW,3.5,-,N/A,,Overcast,310,2012-12-08 13:07:00
7:52 AM,50.0,48.0,93,29.94,3.0,North,3.5,-,N/A,,Overcast,360,2012-12-08 13:52:00
8:52 AM,50.0,48.0,93,29.96,6.0,NNW,8.1,-,N/A,,Overcast,340,2012-12-08 14:52:00
9:31 AM,51.8,46.4,82,29.96,10.0,North,8.1,-,N/A,,Overcast,360,2012-12-08 15:31:00
9:40 AM,51.8,46.4,82,29.96,10.0,North,5.8,-,N/A,,Overcast,350,2012-12-08 15:40:00
9:52 AM,51.1,46.9,86,29.97,10.0,North,9.2,-,N/A,,Overcast,360,2012-12-08 15:52:00
10:52 AM,51.1,46.9,86,29.98,10.0,North,5.8,-,N/A,,Overcast,350,2012-12-08 16:52:00
11:26 AM,50.0,46.4,87,29.98,9.0,North,6.9,-,N/A,,Overcast,350,2012-12-08 17:26:00
11:52 AM,50.0,46.0,86,29.97,9.0,North,8.1,-,N/A,,Overcast,360,2012-12-08 17:52:00
12:02 PM,50.0,46.4,87,29.97,10.0,North,5.8,-,N/A,,Overcast,350,2012-12-08 18:02:00
12:52 PM,50.0,46.0,86,29.96,8.0,North,8.1,-,N/A,,Overcast,350,2012-12-08 18:52:00
1:24 PM,48.2,44.6,87,29.95,7.0,North,9.2,-,N/A,,Overcast,350,2012-12-08 19:24:00
1:52 PM,50.0,45.0,83,29.95,7.0,NNE,6.9,-,N/A,,Overcast,20,2012-12-08 19:52:00
2:52 PM,50.0,46.0,86,29.96,9.0,Calm,Calm,-,N/A,,Overcast,0,2012-12-08 20:52:00
3:18 PM,48.2,46.4,93,29.96,1.8,NE,6.9,-,N/A,,Overcast,50,2012-12-08 21:18:00
3:26 PM,48.2,46.4,93,29.97,1.2,NE,6.9,-,N/A,,Overcast,50,2012-12-08 21:26:00
3:48 PM,48.2,46.4,93,29.97,1.2,NNE,6.9,-,N/A,,Overcast,30,2012-12-08 21:48:00
3:52 PM,48.0,46.0,93,29.97,1.2,NE,5.8,-,N/A,,Overcast,50,2012-12-08 21:52:00
4:01 PM,48.2,46.4,93,29.97,1.8,ENE,5.8,-,N/A,,Overcast,60,2012-12-08 22:01:00
4:10 PM,48.2,46.4,93,29.97,2.5,ENE,5.8,-,N/A,,Overcast,60,2012-12-08 22:10:00
4:33 PM,48.2,46.4,93,29.97,3.0,NE,5.8,-,N/A,,Overcast,50,2012-12-08 22:33:00
4:41 PM,48.2,46.4,93,29.97,3.0,NE,4.6,-,N/A,,Overcast,40,2012-12-08 22:41:00
4:52 PM,48.0,46.0,93,29.97,5.0,NNE,4.6,-,N/A,,Overcast,30,2012-12-08 22:52:00
5:28 PM,48.2,46.4,93,29.97,6.0,NNE,3.5,-,N/A,,Overcast,30,2012-12-08 23:28:00
5:44 PM,48.2,44.6,87,29.98,7.0,NE,3.5,-,N/A,,Overcast,40,2012-12-08 23:44:00
6:52 PM,48.0,45.0,89,29.98,8.0,ENE,6.9,-,N/A,,Overcast,70,2012-12-09 00:52:00
7:52 PM,48.0,45.0,89,29.99,8.0,ENE,3.5,-,N/A,,Overcast,70,2012-12-09 01:52:00
8:52 PM,48.0,44.1,86,29.97,9.0,East,5.8,-,N/A,,Overcast,80,2012-12-09 02:52:00
9:09 PM,48.2,44.6,87,29.96,10.0,East,6.9,-,N/A,,Overcast,90,2012-12-09 03:09:00
9:52 PM,48.0,44.1,86,29.96,9.0,East,5.8,-,N/A,,Overcast,80,2012-12-09 03:52:00
10:52 PM,48.0,44.1,86,29.96,7.0,East,9.2,-,N/A,,Overcast,100,2012-12-09 04:52:00
11:52 PM,48.0,44.1,86,29.95,7.0,East,4.6,-,N/A,,Overcast,80,2012-12-09 05:52:00